Location: Clanezzo
(45.7500°N, 9.6000°E)
Time: 04:24:08
(UTC+00:00)

Cosmos 1898 Rocket - Pass Details

Date: 12 May 2021
Orbit: 753 x 784 km, 74.0° (Epoch: 18 June)

Event Time Altitude Azimuth Distance (km) Brightness Sun altitude
Exits shadow 22:10:32 31° 234° (SW) 1,351 4.6 -24.1°
Maximum altitude 22:12:53 54° 296° (WNW) 947 4.1 -24.2°
Drops below altitude 10° 22:18:07 10° 14° (NNE) 2,349 6.8 -24.5°
Sets 22:20:35 0° 19° (NNE) 3,283 7.6 -24.6°
